{"data":{"norad_id":43432,"epoch":"2026-05-25T04:20:58.776576Z","epoch_age_seconds":62605,"freshness":"FRESH","line1":"1 43432U 18037A   26145.18123584 -.00000347  00000+0  00000+0 0  9998","line2":"2 43432   0.0101  11.7715 0000477 204.1630 220.1369  1.00272927 29729","mean_motion":1.00272927,"eccentricity":4.77e-5,"inclination_deg":0.0101,"raan_deg":11.7715,"arg_perigee_deg":204.163,"mean_anomaly_deg":220.1369,"bstar":0,"rev_number":2972,"period_min":1436.0805484416,"perigee_km":35784.263577729,"apogee_km":35788.286062617,"semimajor_km":42164.411820173,"source":"CELESTRAK","updated_at":"2026-05-25T13:38:14.053671Z"}}